ANZ216 YMML-NZCH

Flight info

Callsign ANZ216
Flight time N/A
Altitude 41000
Route CORRS Y260 ECKHO L508 MOLGI
Aircraft B789/H-SDE1E2E3FGHIJ2J3J4J5M1RWXY/LB1D1

Departure

Time 2026-05-06 22:40
Airport Melbourne Airport (YMML)

Arrival

Time N/A
Airport Christchurch International Airport (NZCH)
Time Latitude Longitude Altitude Speed Heading
2026-05-06 22:14 -37.66731 144.84539 402 ft 0 kts 172°
2026-05-06 22:30 -37.66718 144.84537 399 ft 3 kts 172°
2026-05-06 22:30 -37.66699 144.84534 403 ft 3 kts 176°
2026-05-06 22:30 -37.66681 144.84529 402 ft 3 kts 138°
2026-05-06 22:30 -37.66669 144.84510 403 ft 3 kts 98°
2026-05-06 22:31 -37.66668 144.84496 401 ft 0 kts 79°
2026-05-06 22:35 -37.66666 144.84506 403 ft 2 kts 79°
2026-05-06 22:36 -37.66662 144.84533 405 ft 4 kts 79°
2026-05-06 22:36 -37.66657 144.84577 405 ft 6 kts 81°
2026-05-06 22:36 -37.66650 144.84637 406 ft 8 kts 82°
2026-05-06 22:36 -37.66641 144.84713 407 ft 9 kts 79°
2026-05-06 22:37 -37.66611 144.84777 409 ft 8 kts 44°
2026-05-06 22:37 -37.66565 144.84796 408 ft 6 kts
2026-05-06 22:37 -37.66522 144.84790 404 ft 6 kts 350°
2026-05-06 22:37 -37.66482 144.84781 408 ft 6 kts 352°
2026-05-06 22:38 -37.66443 144.84777 406 ft 6 kts 360°
2026-05-06 22:38 -37.66401 144.84778 411 ft 7 kts
2026-05-06 22:38 -37.66342 144.84783 408 ft 10 kts
2026-05-06 22:38 -37.66270 144.84775 413 ft 11 kts 346°
2026-05-06 22:39 -37.66224 144.84720 410 ft 6 kts 281°
2026-05-06 22:39 -37.66224 144.84716 409 ft 0 kts 278°
2026-05-06 22:39 -37.66218 144.84616 411 ft 37 kts 273°
2026-05-06 22:39 -37.66183 144.83995 414 ft 103 kts 274°
2026-05-06 22:40 -37.66083 144.82873 526 ft 145 kts 287°
2026-05-06 22:40 -37.65869 144.81616 1177 ft 146 kts 274°
2026-05-06 22:40 -37.65811 144.80297 1945 ft 153 kts 261°
2026-05-06 22:40 -37.65845 144.78976 2716 ft 154 kts 261°
2026-05-06 22:41 -37.65725 144.75895 3632 ft 199 kts 266°
2026-05-06 22:41 -37.66113 144.74199 3916 ft 215 kts 228°
2026-05-06 22:41 -37.67356 144.73071 4774 ft 221 kts 206°
2026-05-06 22:42 -37.68841 144.72713 5880 ft 227 kts 182°
2026-05-06 22:42 -37.70407 144.73226 6867 ft 238 kts 165°
2026-05-06 22:42 -37.72006 144.73994 7725 ft 245 kts 166°
2026-05-06 22:42 -37.73598 144.74692 8716 ft 246 kts 167°
2026-05-06 22:43 -37.75241 144.75363 9654 ft 250 kts 168°
2026-05-06 22:43 -37.76920 144.76096 10350 ft 266 kts 161°
2026-05-06 22:43 -37.78500 144.77594 10549 ft 306 kts 139°
2026-05-06 22:43 -37.79638 144.80062 10777 ft 347 kts 112°
2026-05-06 22:44 -37.80149 144.83059 11634 ft 351 kts 108°
2026-05-06 22:44 -37.80649 144.86105 12421 ft 355 kts 108°
2026-05-06 22:44 -37.81144 144.89187 13217 ft 359 kts 108°
2026-05-06 22:44 -37.81643 144.92293 13993 ft 363 kts 108°
2026-05-06 22:45 -37.82150 144.95449 14715 ft 366 kts 109°
2026-05-06 22:45 -37.82658 144.98610 15471 ft 367 kts 110°
2026-05-06 22:45 -37.83170 145.01785 16215 ft 370 kts 110°
2026-05-06 22:45 -37.83687 145.05003 16822 ft 376 kts 110°
2026-05-06 22:46 -37.84204 145.08258 17574 ft 377 kts 110°
2026-05-06 22:46 -37.84723 145.11521 18278 ft 380 kts 111°
2026-05-06 22:46 -37.85246 145.14797 18912 ft 381 kts 112°
2026-05-06 22:46 -37.85761 145.18040 19556 ft 381 kts 112°
2026-05-06 22:47 -37.86282 145.21334 20216 ft 381 kts 114°
2026-05-06 22:47 -37.86804 145.24627 20843 ft 382 kts 114°
2026-05-06 22:47 -37.87328 145.27928 21486 ft 383 kts 114°
2026-05-06 22:47 -37.87855 145.31253 22001 ft 386 kts 115°
2026-05-06 22:48 -37.88375 145.34590 22725 ft 385 kts 115°
2026-05-06 22:48 -37.88896 145.37917 23360 ft 385 kts 116°
2026-05-06 22:48 -37.89421 145.41247 23949 ft 385 kts 117°
2026-05-06 22:48 -37.89947 145.44585 24338 ft 388 kts 117°
2026-05-06 22:49 -37.90473 145.47950 24759 ft 390 kts 116°
2026-05-06 22:49 -37.90998 145.51330 25143 ft 393 kts 116°
2026-05-06 22:49 -37.91533 145.54750 25455 ft 398 kts 115°
2026-05-06 22:49 -37.92070 145.58203 25813 ft 401 kts 115°
2026-05-06 22:50 -37.92793 145.61563 26183 ft 390 kts 123°
2026-05-06 22:50 -37.93812 145.64646 26561 ft 382 kts 129°
2026-05-06 22:50 -37.94979 145.67690 26925 ft 385 kts 128°
2026-05-06 22:50 -37.96143 145.70753 27285 ft 388 kts 128°
2026-05-06 22:51 -37.97322 145.73848 27666 ft 390 kts 128°
2026-05-06 22:51 -37.98510 145.76955 28047 ft 393 kts 128°
2026-05-06 22:51 -38.14525 146.18172 31929 ft 467 kts 123°
2026-05-06 22:51 -38.37359 146.78885 35260 ft 535 kts 116°
2026-05-06 22:52 -38.49692 147.13664 39033 ft 521 kts 117°
2026-05-06 22:52 -38.61654 147.47115 40912 ft 528 kts 115°
2026-05-06 22:52 -38.69928 147.69803 40909 ft 533 kts 116°